Weather History for Price, UT

Change the Weather History Date:

Monday, December 10, 2012

  Actual Average Record
Temperature  
Mean Temperature 24 °F -  
Max Temperature 39 °F 34 °F 50 °F (1990)
Min Temperature 10 °F 16 °F -5 °F (1972)
Degree Days  
Heating Degree Days 40    
Moisture  
Dew Point 7 °F    
Average Humidity 50    
Maximum Humidity 64    
Minimum Humidity 35    
Precipitation  
Precipitation 0.00 in - - ()
Sea Level Pressure  
Sea Level Pressure 30.26 in    
Wind  
Wind Speed 4 mph (NW)    
Max Wind Speed 18 mph    
Max Gust Speed 31 mph    
Visibility 10 miles    
Events      
Averages and records for this station are not official NWS values.
T = Trace of Precipitation, MM = Missing Value Source: NWS Daily Summary

Daily Weather History Graph

Daily Weather History Graph

Search for Another Location

Airport:

Trip Planner

Search our weather history database for the weather conditions in past years. The results will help you decide how hot, cold, wet, or windy it might be!

Date:

Astronomy

Dec. 10, 2012 Rise Set
Actual Time 7:33 AM MST 4:58 PM MST
Civil Twilight 7:03 AM MST 5:29 PM MST
Nautical Twilight 6:29 AM MST 6:02 PM MST
Astronomical Twilight 5:56 AM MST 6:35 PM MST
Moon 4:21 AM MST (12/10) 2:50 PM MST (12/10)
Length of Visible Light 10h 26m
Length of Day
9h 25m
Waning Crescent, 10% of the Moon is Illuminated
Dec 10
Waning Crescent
Dec 13
New
Dec 19
First Quarter
Dec 28
Full
Jan 4
Last Quarter

Hourly Weather History & Observations

Time (MST) Temp. Windchill Dew Point Humidity Pressure Visibility Wind Dir Wind Speed Gust Speed Precip Events Conditions
12:53 AM 14.0 °F - 1.0 °F 56% 30.36 in 10.0 mi Calm Calm - N/A   Clear
1:53 AM 10.0 °F - -0.0 °F 64% 30.37 in 10.0 mi Calm Calm - N/A   Clear
2:53 AM 12.0 °F - 1.0 °F 61% 30.36 in 10.0 mi Calm Calm - N/A   Clear
3:53 AM 10.9 °F - 1.0 °F 64% 30.36 in 10.0 mi Calm Calm - N/A   Clear
4:53 AM 12.9 °F - 1.9 °F 62% 30.34 in 10.0 mi Calm Calm - N/A   Scattered Clouds
5:53 AM 10.9 °F - -0.0 °F 61% 30.35 in 10.0 mi Calm Calm - N/A   Clear
6:53 AM 12.0 °F 2.7 °F 1.9 °F 64% 30.36 in 10.0 mi NNE 5.8 mph - N/A   Clear
7:53 AM 12.9 °F 6.9 °F 1.9 °F 62% 30.36 in 10.0 mi ENE 3.5 mph - N/A   Mostly Cloudy
8:53 AM 18.0 °F 12.7 °F 3.9 °F 54% 30.34 in 10.0 mi WSW 3.5 mph - N/A   Mostly Cloudy
9:53 AM 19.9 °F - 3.9 °F 50% 30.35 in 10.0 mi Calm Calm - N/A   Overcast
10:53 AM 24.1 °F 19.7 °F 5.0 °F 44% 30.35 in 10.0 mi South 3.5 mph - N/A   Overcast
11:53 AM 27.0 °F 23.0 °F 3.9 °F 37% 30.28 in 10.0 mi SW 3.5 mph - N/A   Scattered Clouds
12:53 PM 30.0 °F - 6.1 °F 36% 30.25 in 10.0 mi Calm Calm - N/A   Mostly Cloudy
1:53 PM 30.9 °F 25.2 °F 6.1 °F 35% 30.23 in 10.0 mi Variable 5.8 mph - N/A   Overcast
2:53 PM 34.0 °F 31.0 °F 10.9 °F 38% 30.18 in 10.0 mi Variable 3.5 mph - N/A   Mostly Cloudy
3:53 PM 39.0 °F 32.3 °F 17.1 °F 41% 30.17 in 10.0 mi NNW 10.4 mph 18.4 mph N/A   Mostly Cloudy
4:53 PM 34.0 °F 23.0 °F 15.1 °F 46% 30.17 in 10.0 mi NW 18.4 mph 31.1 mph N/A   Partly Cloudy
5:53 PM 33.8 °F 24.8 °F 14.0 °F 44% 30.01 in 10.0 mi NW 12.7 mph 28.8 mph N/A   Clear
6:53 PM 33.1 °F 26.1 °F 14.0 °F 46% 30.18 in 10.0 mi NNW 8.1 mph - N/A   Clear
7:53 PM 33.1 °F 23.4 °F 14.0 °F 46% 30.19 in 10.0 mi NW 13.8 mph 21.9 mph N/A   Clear
8:53 PM 32.0 °F 21.6 °F 12.9 °F 45% 30.17 in 10.0 mi NNW 15.0 mph 20.7 mph N/A   Clear
9:53 PM 32.0 °F 22.1 °F 15.1 °F 50% 30.17 in 10.0 mi NNW 13.8 mph - N/A   Clear
10:53 PM 32.0 °F 24.2 °F 15.1 °F 50% 30.16 in 10.0 mi NW 9.2 mph - N/A   Clear
11:53 PM 32.0 °F 23.6 °F 14.0 °F 48% 30.15 in 10.0 mi NNW 10.4 mph - N/A   Clear